Flag for Switzerland Weather past 2 weeks in Schlieren, Zurich, Switzerland

Now
33 °F

Chilly.


Feels Like: 30 °F
Forecast: 25 / 35 °F
Wind: 3 mph from Southwest

Location: Zurich Town / Ville.

Current Time: Dec 26, 2014 at 4:04:30 AM

Latest Report: Dec 26, 2014 at 3:00 AM


Visibility: N/A

Pressure: 30.48 "Hg

Humidity: 93%

Dew point: 32 °F

Location of SchlierenLocation

Historic Weather in Schlieren — Graph

°F

Schlieren temperature yesterday

Maximum temperature yesterday: 46 °F (at 1:00 AM)
Minimum temperature yesterday: 33 °F (at 11:00 PM)
Average temperature yesterday: 41 °F

Past Weeks' High & Low Weather Summary

 TemperatureHumidityPressure
High54 °F (Dec 19, 2:00 PM)96% (Dec 16, 3:00 AM)30.60 "Hg (Dec 16, 3:00 AM)
Low32 °F (Dec 23, 7:00 AM)43% (Dec 13, 1:00 PM)29.87 "Hg (Dec 12, 8:00 PM)
Average42 °F76%30.20 "Hg
* Reported Dec 11 2:00 AM — Dec 26 2:00 AM, Schlieren, Weather by CustomWeather, © 2014

Note: Actual official high and low records may vary slightly from our data, if they occured in-between our weather recording intervals... More about our weather records

Advertising

Schlieren weather history for previous 24 hours

 ConditionsComfort  
Time TempWeatherWind HumidityBarometerVisibility
2:00 AM
Dec 26
33 °FChilly.6 mph93%30.47 "HgN/A
1:00 AM33 °FChilly.2 mph93%30.46 "HgN/A
12:00 AM33 °FChilly.3 mph92%30.47 "HgN/A
11:00 PM
Dec 25
33 °FChilly.3 mph96%30.47 "HgN/A
10:00 PM35 °FChilly.5 mph86%30.47 "HgN/A
9:00 PM38 °FChilly.3 mph71%30.44 "HgN/A
8:00 PM38 °FChilly.3 mph74%30.44 "HgN/A
7:00 PM38 °FChilly.5 mph73%30.43 "HgN/A
6:00 PM38 °FChilly.7 mph74%30.42 "HgN/A
5:00 PM39 °FChilly.6 mph73%30.40 "HgN/A
4:00 PM39 °FChilly.7 mph75%30.39 "HgN/A
3:00 PM39 °FChilly.7 mph79%30.37 "HgN/A
2:00 PM40 °FChilly.8 mph81%30.36 "HgN/A
1:00 PM41 °FQuite cool.9 mph82%30.35 "HgN/A
12:00 PM41 °FQuite cool.8 mph88%30.35 "HgN/A
11:00 AM41 °FQuite cool.8 mph96%30.36 "HgN/A
10:00 AM42 °FQuite cool.3 mph92%30.34 "HgN/A
9:00 AM41 °FQuite cool.3 mph92%30.33 "HgN/A
8:00 AM42 °FQuite cool.7 mph89%30.31 "HgN/A
7:00 AM42 °FFog.5 mph85%30.31 "HgN/A
6:00 AM42 °FQuite cool.7 mph83%30.30 "HgN/A
5:00 AM44 °FQuite cool.9 mph71%30.29 "HgN/A
Weather by CustomWeather, © 2014

See weather overviewHow to use our weather pages